Time,TemperatureF,DewpointF,PressureIn,WindDirection,WindDirectionDegrees,WindSpeedMPH,WindSpeedGustMPH,Humidity,HourlyPrecipIn,Conditions,Clouds,dailyrainin,SoftwareType,DateUTC
2013-02-10 00:04:00,37.9,35.0,29.39,ESE,111,0.0,0.0,89,0.00,RA,SKC,0.00,WeatherDisplay:10.37,2013-02-10 00:04:00,
2013-02-10 00:09:00,37.9,35.0,29.38,ESE,112,0.0,0.0,89,0.00,RA,SKC,0.00,WeatherDisplay:10.37,2013-02-10 00:09:00,
2013-02-10 00:14:00,37.9,35.0,29.38,SE,130,0.0,0.0,89,0.00,CLR,SKC,0.00,WeatherDisplay:10.37,2013-02-10 00:14:00,
2013-02-10 00:20:00,37.9,35.0,29.38,SE,127,0.0,0.0,89,0.00,CLR,SKC,0.00,WeatherDisplay:10.37,2013-02-10 00:20:00,
2013-02-10 00:25:00,37.9,35.0,29.37,SE,124,0.0,0.0,89,0.00,CLR,SKC,0.00,WeatherDisplay:10.37,2013-02-10 00:25:00,
2013-02-10 00:29:00,38.1,35.2,29.37,SE,135,0.0,0.0,89,0.00,CLR,SKC,0.00,WeatherDisplay:10.37,2013-02-10 00:29:00,
2013-02-10 00:34:00,37.9,35.0,29.37,SE,135,0.0,0.0,89,0.00,CLR,SKC,0.00,WeatherDisplay:10.37,2013-02-10 00:34:00,
2013-02-10 00:39:00,37.9,35.0,29.36,ESE,112,0.0,0.0,89,0.00,CLR,SKC,0.00,WeatherDisplay:10.37,2013-02-10 00:39:00,
2013-02-10 00:45:00,37.9,35.0,29.36,ESE,112,0.0,0.0,89,0.00,CLR,SKC,0.00,WeatherDisplay:10.37,2013-02-10 00:45:00,
2013-02-10 00:50:00,37.9,35.0,29.36,ESE,108,0.0,0.0,89,0.00,CLR,SKC,0.00,WeatherDisplay:10.37,2013-02-10 00:50:00,
2013-02-10 00:54:00,37.9,35.0,29.36,SSE,158,0.0,0.0,89,0.00,CLR,SKC,0.00,WeatherDisplay:10.37,2013-02-10 00:54:00,
2013-02-10 01:00:00,37.9,35.3,29.36,ESE,112,0.0,0.0,90,0.00,CLR,SKC,0.00,WeatherDisplay:10.37,2013-02-10 01:00:00,
2013-02-10 01:04:00,37.9,35.3,29.35,ESE,113,0.0,0.0,90,0.00,CLR,SKC,0.00,WeatherDisplay:10.37,2013-02-10 01:04:00,
2013-02-10 01:09:00,37.9,35.3,29.35,SE,135,0.0,0.0,90,0.00,CLR,SKC,0.00,WeatherDisplay:10.37,2013-02-10 01:09:00,
2013-02-10 01:14:00,37.9,35.3,29.35,SE,124,0.0,0.0,90,0.00,CLR,SKC,0.00,WeatherDisplay:10.37,2013-02-10 01:14:00,
2013-02-10 01:19:00,37.9,35.3,29.34,ESE,112,0.0,0.0,90,0.00,CLR,SKC,0.00,WeatherDisplay:10.37,2013-02-10 01:19:00,
2013-02-10 01:24:00,37.8,35.1,29.34,SE,124,0.0,0.0,90,0.00,CLR,SKC,0.00,WeatherDisplay:10.37,2013-02-10 01:24:00,
2013-02-10 01:29:00,37.6,35.0,29.34,ESE,121,0.0,0.0,90,0.00,CLR,SKC,0.00,WeatherDisplay:10.37,2013-02-10 01:29:00,
2013-02-10 01:34:00,37.6,35.2,29.33,East,90,0.0,0.0,91,0.00,CLR,SKC,0.00,WeatherDisplay:10.37,2013-02-10 01:34:00,
2013-02-10 01:39:00,37.6,35.2,29.33,East,96,0.0,0.0,91,0.00,CLR,SKC,0.00,WeatherDisplay:10.37,2013-02-10 01:39:00,
2013-02-10 01:45:00,37.5,35.1,29.33,East,90,0.0,0.0,91,0.00,CLR,SKC,0.00,WeatherDisplay:10.37,2013-02-10 01:45:00,
2013-02-10 01:49:00,37.4,35.0,29.33,ESE,112,0.0,0.0,91,0.00,CLR,SKC,0.00,WeatherDisplay:10.37,2013-02-10 01:49:00,
2013-02-10 01:54:00,37.4,35.0,29.32,ESE,106,0.0,0.0,91,0.00,CLR,SKC,0.00,WeatherDisplay:10.37,2013-02-10 01:54:00,
2013-02-10 01:59:00,37.4,35.0,29.31,SE,135,0.0,0.0,91,0.02,RA,SKC,0.02,WeatherDisplay:10.37,2013-02-10 01:59:00,
2013-02-10 02:04:00,37.6,35.2,29.31,ESE,112,0.0,0.0,91,0.02,RA,SKC,0.02,WeatherDisplay:10.37,2013-02-10 02:04:00,
2013-02-10 02:09:00,37.6,35.2,29.31,ESE,106,0.0,0.0,91,0.00,CLR,SKC,0.02,WeatherDisplay:10.37,2013-02-10 02:09:00,
2013-02-10 02:14:00,37.6,35.2,29.31,SE,135,0.0,0.0,91,0.02,CLR,SKC,0.02,WeatherDisplay:10.37,2013-02-10 02:14:00,
2013-02-10 02:19:00,37.6,35.2,29.30,SE,135,0.0,0.0,91,0.02,CLR,SKC,0.02,WeatherDisplay:10.37,2013-02-10 02:19:00,
2013-02-10 02:24:00,37.6,35.2,29.30,SE,134,0.0,0.0,91,0.00,CLR,SKC,0.02,WeatherDisplay:10.37,2013-02-10 02:24:00,
2013-02-10 02:29:00,37.6,35.2,29.30,ESE,112,0.0,0.0,91,0.02,CLR,SKC,0.02,WeatherDisplay:10.37,2013-02-10 02:29:00,
2013-02-10 02:34:00,37.4,35.0,29.29,ESE,115,0.0,0.0,91,0.00,CLR,SKC,0.02,WeatherDisplay:10.37,2013-02-10 02:34:00,
2013-02-10 02:40:00,37.4,35.0,29.29,ESE,107,0.0,0.0,91,0.00,CLR,SKC,0.02,WeatherDisplay:10.37,2013-02-10 02:40:00,
2013-02-10 02:44:00,37.6,35.2,29.29,ESE,112,0.0,0.0,91,0.00,CLR,SKC,0.02,WeatherDisplay:10.37,2013-02-10 02:44:00,
2013-02-10 02:50:00,37.6,35.2,29.28,ENE,68,0.0,0.0,91,0.02,CLR,SKC,0.02,WeatherDisplay:10.37,2013-02-10 02:50:00,
2013-02-10 02:55:00,37.4,35.0,29.28,SE,135,0.0,0.0,91,0.02,CLR,SKC,0.02,WeatherDisplay:10.37,2013-02-10 02:55:00,
2013-02-10 03:00:00,37.6,35.2,29.28,ESE,112,0.0,0.0,91,0.00,CLR,SKC,0.02,WeatherDisplay:10.37,2013-02-10 03:00:00,
2013-02-10 03:05:00,37.6,35.2,29.28,East,90,0.0,0.0,91,0.00,CLR,SKC,0.02,WeatherDisplay:10.37,2013-02-10 03:05:00,
2013-02-10 03:10:00,37.6,35.2,29.27,ESE,112,0.0,0.0,91,0.00,CLR,SKC,0.02,WeatherDisplay:10.37,2013-02-10 03:10:00,
2013-02-10 03:15:00,37.6,35.2,29.27,ESE,112,0.0,0.0,91,0.00,CLR,SKC,0.02,WeatherDisplay:10.37,2013-02-10 03:15:00,
2013-02-10 03:20:00,37.4,34.7,29.26,ESE,112,0.0,0.0,90,0.00,CLR,SKC,0.02,WeatherDisplay:10.37,2013-02-10 03:20:00,
2013-02-10 03:25:00,37.6,34.9,29.26,ESE,112,0.0,0.0,90,0.00,CLR,SKC,0.02,WeatherDisplay:10.37,2013-02-10 03:25:00,
2013-02-10 03:30:00,37.6,34.9,29.26,ENE,68,0.0,0.0,90,0.00,CLR,SKC,0.02,WeatherDisplay:10.37,2013-02-10 03:30:00,
2013-02-10 03:35:00,37.6,34.9,29.25,ESE,112,0.0,0.0,90,0.00,CLR,SKC,0.02,WeatherDisplay:10.37,2013-02-10 03:35:00,
2013-02-10 03:40:00,37.6,34.9,29.25,SSE,158,0.0,0.0,90,0.00,CLR,SKC,0.02,WeatherDisplay:10.37,2013-02-10 03:40:00,
2013-02-10 03:45:00,37.6,34.9,29.25,ESE,112,0.0,0.0,90,0.00,CLR,SKC,0.02,WeatherDisplay:10.37,2013-02-10 03:45:00,
2013-02-10 03:50:00,37.6,34.9,29.24,SE,135,0.0,0.0,90,0.00,CLR,SKC,0.02,WeatherDisplay:10.37,2013-02-10 03:50:00,
2013-02-10 03:55:00,37.6,34.9,29.24,ESE,112,0.0,0.0,90,0.00,CLR,SKC,0.02,WeatherDisplay:10.37,2013-02-10 03:55:00,
2013-02-10 04:00:00,37.6,34.9,29.24,ESE,112,0.0,0.0,90,0.00,CLR,SKC,0.02,WeatherDisplay:10.37,2013-02-10 04:00:00,
2013-02-10 04:05:00,37.6,34.9,29.23,ESE,112,0.0,0.0,90,0.00,CLR,SKC,0.02,WeatherDisplay:10.37,2013-02-10 04:05:00,
2013-02-10 04:10:00,37.4,34.7,29.23,SE,135,0.0,0.0,90,0.00,CLR,SKC,0.02,WeatherDisplay:10.37,2013-02-10 04:10:00,
2013-02-10 04:15:00,37.4,34.7,29.23,SE,135,0.0,0.0,90,0.00,CLR,SKC,0.02,WeatherDisplay:10.37,2013-02-10 04:15:00,
2013-02-10 04:20:00,37.4,34.7,29.22,ESE,112,0.0,0.0,90,0.00,CLR,SKC,0.02,WeatherDisplay:10.37,2013-02-10 04:20:00,
2013-02-10 04:25:00,37.4,34.5,29.22,ESE,112,0.0,0.0,89,0.00,CLR,SKC,0.02,WeatherDisplay:10.37,2013-02-10 04:25:00,
2013-02-10 04:30:00,37.2,34.3,29.22,ESE,112,0.0,0.0,89,0.00,CLR,SKC,0.02,WeatherDisplay:10.37,2013-02-10 04:30:00,
2013-02-10 04:35:00,37.2,34.3,29.21,ESE,112,0.0,0.0,89,0.00,CLR,SKC,0.02,WeatherDisplay:10.37,2013-02-10 04:35:00,
2013-02-10 04:40:00,37.2,34.3,29.21,ESE,112,0.0,0.0,89,0.00,CLR,SKC,0.02,WeatherDisplay:10.37,2013-02-10 04:40:00,
2013-02-10 04:45:00,37.2,34.3,29.21,ESE,112,0.0,0.0,89,0.00,CLR,SKC,0.02,WeatherDisplay:10.37,2013-02-10 04:45:00,
2013-02-10 04:50:00,37.2,34.3,29.21,ESE,112,0.0,0.0,89,0.00,CLR,SKC,0.02,WeatherDisplay:10.37,2013-02-10 04:50:00,
2013-02-10 04:55:00,37.2,34.3,29.21,ESE,112,0.0,0.0,89,0.00,CLR,SKC,0.02,WeatherDisplay:10.37,2013-02-10 04:55:00,
2013-02-10 05:00:00,37.2,34.3,29.20,East,90,0.0,0.0,89,0.00,CLR,SKC,0.02,WeatherDisplay:10.37,2013-02-10 05:00:00,
2013-02-10 05:05:00,37.2,34.3,29.20,ESE,112,0.0,0.0,89,0.00,CLR,SKC,0.02,WeatherDisplay:10.37,2013-02-10 05:05:00,
2013-02-10 05:10:00,37.2,34.3,29.20,SE,135,0.0,0.0,89,0.00,CLR,SKC,0.02,WeatherDisplay:10.37,2013-02-10 05:10:00,
2013-02-10 05:15:00,37.2,34.3,29.19,ENE,68,0.0,0.0,89,0.00,CLR,SKC,0.02,WeatherDisplay:10.37,2013-02-10 05:15:00,
2013-02-10 05:20:00,37.0,34.1,29.19,ESE,112,0.0,0.0,89,0.00,CLR,SKC,0.02,WeatherDisplay:10.37,2013-02-10 05:20:00,
2013-02-10 05:25:00,37.0,34.1,29.19,ESE,112,0.0,0.0,89,0.00,CLR,SKC,0.02,WeatherDisplay:10.37,2013-02-10 05:25:00,
2013-02-10 05:30:00,36.9,33.9,29.19,SE,135,0.0,0.0,89,0.00,CLR,SKC,0.02,WeatherDisplay:10.37,2013-02-10 05:30:00,
2013-02-10 05:35:00,36.7,34.0,29.18,East,90,0.0,0.0,90,0.00,CLR,SKC,0.02,WeatherDisplay:10.37,2013-02-10 05:35:00,
2013-02-10 05:40:00,36.7,34.0,29.18,SE,135,0.0,0.0,90,0.00,CLR,SKC,0.02,WeatherDisplay:10.37,2013-02-10 05:40:00,
2013-02-10 05:45:00,36.7,34.0,29.18,East,90,0.0,0.0,90,0.00,CLR,SKC,0.02,WeatherDisplay:10.37,2013-02-10 05:45:00,
2013-02-10 05:50:00,36.7,34.0,29.18,SE,135,0.0,0.0,90,0.00,CLR,SKC,0.02,WeatherDisplay:10.37,2013-02-10 05:50:00,
2013-02-10 05:55:00,36.5,33.8,29.18,East,90,0.0,0.0,90,0.00,CLR,SKC,0.02,WeatherDisplay:10.37,2013-02-10 05:55:00,
2013-02-10 06:00:00,36.5,33.8,29.17,East,90,0.0,0.0,90,0.00,CLR,SKC,0.02,WeatherDisplay:10.37,2013-02-10 06:00:00,
2013-02-10 06:05:00,36.5,33.8,29.17,ESE,112,0.0,0.0,90,0.00,CLR,SKC,0.02,WeatherDisplay:10.37,2013-02-10 06:05:00,
2013-02-10 06:10:00,36.5,33.8,29.17,ESE,112,0.0,0.0,90,0.00,CLR,SKC,0.02,WeatherDisplay:10.37,2013-02-10 06:10:00,
2013-02-10 06:15:00,36.5,33.8,29.17,ESE,112,0.0,0.0,90,0.00,CLR,SKC,0.02,WeatherDisplay:10.37,2013-02-10 06:15:00,
2013-02-10 06:20:00,36.5,33.8,29.17,ESE,112,0.0,0.0,90,0.00,CLR,SKC,0.02,WeatherDisplay:10.37,2013-02-10 06:20:00,
2013-02-10 06:25:00,36.5,33.8,29.17,ESE,112,0.0,0.0,90,0.00,CLR,SKC,0.02,WeatherDisplay:10.37,2013-02-10 06:25:00,
2013-02-10 06:30:00,36.3,33.7,29.16,ESE,112,0.0,0.0,90,0.00,CLR,SKC,0.02,WeatherDisplay:10.37,2013-02-10 06:30:00,
2013-02-10 06:35:00,36.3,33.9,29.16,ESE,112,0.0,0.0,91,0.00,CLR,SKC,0.02,WeatherDisplay:10.37,2013-02-10 06:35:00,
2013-02-10 06:40:00,36.3,33.9,29.16,ESE,112,0.0,0.0,91,0.02,RA,SKC,0.04,WeatherDisplay:10.37,2013-02-10 06:40:00,
2013-02-10 06:45:00,36.3,33.9,29.15,East,90,0.0,0.0,91,0.02,RA,SKC,0.04,WeatherDisplay:10.37,2013-02-10 06:45:00,
2013-02-10 06:50:00,36.1,33.8,29.15,ESE,112,0.0,0.0,91,0.02,CLR,SKC,0.04,WeatherDisplay:10.37,2013-02-10 06:50:00,
2013-02-10 06:55:00,36.1,33.8,29.15,East,90,0.0,0.0,91,0.02,CLR,SKC,0.04,WeatherDisplay:10.37,2013-02-10 06:55:00,
2013-02-10 07:00:00,36.1,33.8,29.15,East,90,0.0,0.0,91,0.02,CLR,SKC,0.04,WeatherDisplay:10.37,2013-02-10 07:00:00,
2013-02-10 07:05:00,36.1,33.8,29.15,NE,45,0.0,0.0,91,0.02,CLR,SKC,0.04,WeatherDisplay:10.37,2013-02-10 07:05:00,
2013-02-10 07:10:00,36.1,33.8,29.14,ESE,112,0.0,0.0,91,0.02,CLR,SKC,0.04,WeatherDisplay:10.37,2013-02-10 07:10:00,
2013-02-10 07:15:00,36.1,33.8,29.14,SSE,158,0.0,0.0,91,0.02,CLR,SKC,0.04,WeatherDisplay:10.37,2013-02-10 07:15:00,
2013-02-10 07:20:00,36.0,33.9,29.14,SE,135,0.0,0.0,92,0.02,CLR,SKC,0.04,WeatherDisplay:10.37,2013-02-10 07:20:00,
2013-02-10 07:25:00,36.0,33.9,29.14,East,90,0.0,0.0,92,0.02,CLR,SKC,0.04,WeatherDisplay:10.37,2013-02-10 07:25:00,
2013-02-10 07:30:00,36.0,33.9,29.14,ESE,112,0.0,0.0,92,0.02,CLR,SKC,0.04,WeatherDisplay:10.37,2013-02-10 07:30:00,
2013-02-10 07:35:00,36.0,33.9,29.13,ESE,112,0.0,0.0,92,0.02,CLR,SKC,0.04,WeatherDisplay:10.37,2013-02-10 07:35:00,
2013-02-10 07:40:00,36.1,34.0,29.13,ESE,112,0.0,0.0,92,0.00,CLR,SKC,0.04,WeatherDisplay:10.37,2013-02-10 07:40:00,
2013-02-10 07:45:00,36.1,34.0,29.13,ESE,112,0.0,0.0,92,0.00,CLR,SKC,0.04,WeatherDisplay:10.37,2013-02-10 07:45:00,
2013-02-10 07:50:00,36.1,33.8,29.13,ESE,112,0.0,0.0,91,0.00,CLR,SKC,0.04,WeatherDisplay:10.37,2013-02-10 07:50:00,
2013-02-10 07:55:00,36.1,33.8,29.12,SE,135,0.0,0.0,91,0.00,CLR,SKC,0.04,WeatherDisplay:10.37,2013-02-10 07:55:00,
2013-02-10 08:00:00,36.1,33.8,29.12,ESE,112,0.0,0.0,91,0.00,CLR,SKC,0.04,WeatherDisplay:10.37,2013-02-10 08:00:00,
2013-02-10 08:05:00,36.5,34.1,29.12,ESE,112,0.0,0.0,91,0.00,CLR,SKC,0.04,WeatherDisplay:10.37,2013-02-10 08:05:00,
2013-02-10 08:11:00,36.7,34.0,29.12,ESE,112,0.0,0.0,90,0.00,CLR,SKC,0.04,WeatherDisplay:10.37,2013-02-10 08:11:00,
2013-02-10 08:16:00,36.7,34.0,29.12,ESE,112,0.0,0.0,90,0.00,CLR,SKC,0.04,WeatherDisplay:10.37,2013-02-10 08:16:00,
2013-02-10 08:21:00,36.7,33.7,29.11,East,90,0.0,0.0,89,0.00,CLR,SKC,0.04,WeatherDisplay:10.37,2013-02-10 08:21:00,
2013-02-10 08:26:00,36.7,33.7,29.11,SE,135,0.0,0.0,89,0.00,CLR,SKC,0.04,WeatherDisplay:10.37,2013-02-10 08:26:00,
2013-02-10 08:31:00,36.9,33.9,29.11,East,90,0.0,0.0,89,0.00,CLR,SKC,0.04,WeatherDisplay:10.37,2013-02-10 08:31:00,
2013-02-10 08:36:00,37.0,34.1,29.11,East,90,0.0,0.0,89,0.00,CLR,SKC,0.04,WeatherDisplay:10.37,2013-02-10 08:36:00,
2013-02-10 08:41:00,36.9,33.9,29.11,East,90,0.0,0.0,89,0.00,CLR,SKC,0.04,WeatherDisplay:10.37,2013-02-10 08:41:00,
2013-02-10 08:46:00,37.0,33.8,29.11,ESE,112,0.0,0.0,88,0.00,CLR,SKC,0.04,WeatherDisplay:10.37,2013-02-10 08:46:00,
2013-02-10 08:51:00,37.0,33.8,29.11,SE,135,0.0,0.0,88,0.00,CLR,SKC,0.04,WeatherDisplay:10.37,2013-02-10 08:51:00,
2013-02-10 08:56:00,36.9,33.6,29.10,ESE,112,0.0,0.0,88,0.00,CLR,SKC,0.04,WeatherDisplay:10.37,2013-02-10 08:56:00,
2013-02-10 09:01:00,37.0,33.8,29.10,East,90,0.0,0.0,88,0.00,CLR,SKC,0.04,WeatherDisplay:10.37,2013-02-10 09:01:00,
2013-02-10 09:06:00,37.0,33.5,29.10,ESE,112,0.0,0.0,87,0.00,CLR,SKC,0.04,WeatherDisplay:10.37,2013-02-10 09:06:00,
2013-02-10 09:11:00,37.0,33.5,29.10,ESE,112,0.0,0.0,87,0.00,CLR,SKC,0.04,WeatherDisplay:10.37,2013-02-10 09:11:00,
2013-02-10 09:16:00,37.0,33.5,29.10,ESE,112,0.0,0.0,87,0.00,CLR,SKC,0.04,WeatherDisplay:10.37,2013-02-10 09:16:00,
2013-02-10 09:21:00,37.0,33.5,29.10,ESE,112,0.0,0.0,87,0.00,CLR,SKC,0.04,WeatherDisplay:10.37,2013-02-10 09:21:00,
2013-02-10 09:26:00,37.0,33.5,29.10,SE,135,0.0,0.0,87,0.00,CLR,SKC,0.04,WeatherDisplay:10.37,2013-02-10 09:26:00,
2013-02-10 09:31:00,36.9,33.4,29.09,SE,135,0.0,0.0,87,0.00,CLR,SKC,0.04,WeatherDisplay:10.37,2013-02-10 09:31:00,
2013-02-10 09:36:00,36.9,33.6,29.09,East,90,0.0,0.0,88,0.00,CLR,SKC,0.04,WeatherDisplay:10.37,2013-02-10 09:36:00,
2013-02-10 09:41:00,36.9,33.6,29.09,NE,45,0.0,0.0,88,0.00,CLR,SKC,0.04,WeatherDisplay:10.37,2013-02-10 09:41:00,
2013-02-10 09:46:00,37.0,33.8,29.08,SE,135,0.0,0.0,88,0.00,CLR,SKC,0.04,WeatherDisplay:10.37,2013-02-10 09:46:00,
2013-02-10 09:51:00,37.0,33.8,29.08,ENE,68,0.0,0.0,88,0.00,CLR,SKC,0.04,WeatherDisplay:10.37,2013-02-10 09:51:00,
2013-02-10 09:56:00,36.9,33.6,29.08,East,90,0.0,0.0,88,0.00,CLR,SKC,0.04,WeatherDisplay:10.37,2013-02-10 09:56:00,
2013-02-10 10:01:00,36.9,33.6,29.08,ESE,112,0.0,0.0,88,0.00,CLR,SKC,0.04,WeatherDisplay:10.37,2013-02-10 10:01:00,
2013-02-10 10:06:00,36.9,33.6,29.08,East,90,0.0,0.0,88,0.00,CLR,SKC,0.04,WeatherDisplay:10.37,2013-02-10 10:06:00,
2013-02-10 10:11:00,36.7,33.5,29.08,East,90,0.0,0.0,88,0.00,CLR,SKC,0.04,WeatherDisplay:10.37,2013-02-10 10:11:00,
2013-02-10 10:16:00,36.7,33.5,29.08,East,90,0.0,0.0,88,0.00,CLR,SKC,0.04,WeatherDisplay:10.37,2013-02-10 10:16:00,
2013-02-10 10:21:00,36.7,33.5,29.08,SE,135,0.0,0.0,88,0.00,CLR,SKC,0.04,WeatherDisplay:10.37,2013-02-10 10:21:00,
2013-02-10 10:26:00,36.7,33.5,29.08,ESE,112,0.0,0.0,88,0.00,CLR,SKC,0.04,WeatherDisplay:10.37,2013-02-10 10:26:00,
2013-02-10 10:31:00,36.7,33.5,29.08,SE,135,0.0,0.0,88,0.00,CLR,SKC,0.04,WeatherDisplay:10.37,2013-02-10 10:31:00,
2013-02-10 10:36:00,36.7,33.5,29.08,SE,135,0.0,0.0,88,0.00,CLR,SKC,0.04,WeatherDisplay:10.37,2013-02-10 10:36:00,
2013-02-10 10:41:00,36.5,33.3,29.07,East,90,0.0,0.0,88,0.00,CLR,SKC,0.04,WeatherDisplay:10.37,2013-02-10 10:41:00,
2013-02-10 10:46:00,36.5,33.3,29.07,ESE,112,0.0,0.0,88,0.00,CLR,SKC,0.04,WeatherDisplay:10.37,2013-02-10 10:46:00,
2013-02-10 10:51:00,36.5,33.3,29.07,ESE,112,0.0,0.0,88,0.00,CLR,SKC,0.04,WeatherDisplay:10.37,2013-02-10 10:51:00,
2013-02-10 10:56:00,36.5,33.3,29.07,ESE,112,0.0,0.0,88,0.00,CLR,SKC,0.04,WeatherDisplay:10.37,2013-02-10 10:56:00,
2013-02-10 11:01:00,36.5,33.3,29.07,SE,135,0.0,0.0,88,0.00,CLR,SKC,0.04,WeatherDisplay:10.37,2013-02-10 11:01:00,
2013-02-10 11:06:00,36.3,33.1,29.07,SE,135,0.0,0.0,88,0.00,CLR,SKC,0.04,WeatherDisplay:10.37,2013-02-10 11:06:00,
2013-02-10 11:11:00,36.3,33.1,29.07,ESE,112,0.0,0.0,88,0.00,CLR,SKC,0.04,WeatherDisplay:10.37,2013-02-10 11:11:00,
2013-02-10 11:16:00,36.1,32.9,29.07,ENE,68,0.0,0.0,88,0.00,CLR,SKC,0.04,WeatherDisplay:10.37,2013-02-10 11:16:00,
2013-02-10 11:21:00,36.1,32.9,29.07,ESE,112,0.0,0.0,88,0.00,CLR,SKC,0.04,WeatherDisplay:10.37,2013-02-10 11:21:00,
2013-02-10 11:26:00,36.1,32.9,29.07,ESE,112,0.0,0.0,88,0.00,CLR,SKC,0.04,WeatherDisplay:10.37,2013-02-10 11:26:00,
2013-02-10 11:31:00,36.1,32.9,29.06,SE,135,0.0,0.0,88,0.00,CLR,SKC,0.04,WeatherDisplay:10.37,2013-02-10 11:31:00,
2013-02-10 11:36:00,36.3,33.1,29.07,SE,135,0.0,0.0,88,0.00,CLR,SKC,0.04,WeatherDisplay:10.37,2013-02-10 11:36:00,
2013-02-10 11:41:00,36.3,33.1,29.06,SE,135,0.0,0.0,88,0.00,CLR,SKC,0.04,WeatherDisplay:10.37,2013-02-10 11:41:00,
2013-02-10 11:46:00,36.3,33.1,29.06,ESE,112,0.0,0.0,88,0.00,CLR,SKC,0.04,WeatherDisplay:10.37,2013-02-10 11:46:00,
2013-02-10 11:51:00,36.3,33.1,29.06,East,90,0.0,0.0,88,0.00,CLR,SKC,0.04,WeatherDisplay:10.37,2013-02-10 11:51:00,
2013-02-10 11:56:00,36.3,33.1,29.06,SE,135,0.0,0.0,88,0.00,CLR,SKC,0.04,WeatherDisplay:10.37,2013-02-10 11:56:00,
2013-02-10 12:01:00,36.3,33.1,29.06,SSE,158,0.0,0.0,88,0.00,CLR,SKC,0.04,WeatherDisplay:10.37,2013-02-10 12:01:00,
2013-02-10 12:06:00,36.3,33.1,29.06,ESE,112,0.0,0.0,88,0.00,CLR,SKC,0.04,WeatherDisplay:10.37,2013-02-10 12:06:00,
2013-02-10 12:11:00,36.3,33.1,29.06,ESE,112,0.0,0.0,88,0.00,CLR,SKC,0.04,WeatherDisplay:10.37,2013-02-10 12:11:00,
2013-02-10 12:16:00,36.3,33.1,29.06,SSE,158,0.0,0.0,88,0.00,CLR,SKC,0.04,WeatherDisplay:10.37,2013-02-10 12:16:00,
2013-02-10 12:21:00,36.3,33.1,29.06,SE,135,0.0,0.0,88,0.00,CLR,SKC,0.04,WeatherDisplay:10.37,2013-02-10 12:21:00,
2013-02-10 12:26:00,36.3,33.1,29.06,ESE,112,0.0,0.0,88,0.00,CLR,SKC,0.04,WeatherDisplay:10.37,2013-02-10 12:26:00,
2013-02-10 12:31:00,36.3,33.1,29.05,ESE,112,0.0,0.0,88,0.00,CLR,SKC,0.04,WeatherDisplay:10.37,2013-02-10 12:31:00,
2013-02-10 12:36:00,36.3,33.1,29.05,ESE,112,0.0,0.0,88,0.00,CLR,SKC,0.04,WeatherDisplay:10.37,2013-02-10 12:36:00,
2013-02-10 12:41:00,36.3,33.1,29.05,ESE,112,0.0,0.0,88,0.00,CLR,SKC,0.04,WeatherDisplay:10.37,2013-02-10 12:41:00,
2013-02-10 12:46:00,36.3,33.1,29.05,East,90,0.0,0.0,88,0.00,CLR,SKC,0.04,WeatherDisplay:10.37,2013-02-10 12:46:00,
2013-02-10 12:51:00,36.3,33.1,29.05,SE,135,0.0,0.0,88,0.00,CLR,SKC,0.04,WeatherDisplay:10.37,2013-02-10 12:51:00,
2013-02-10 12:56:00,36.3,33.1,29.05,SE,135,0.0,0.0,88,0.00,CLR,SKC,0.04,WeatherDisplay:10.37,2013-02-10 12:56:00,
2013-02-10 13:01:00,36.3,33.4,29.04,ESE,112,0.0,0.0,89,0.00,CLR,SKC,0.04,WeatherDisplay:10.37,2013-02-10 13:01:00,
2013-02-10 13:06:00,36.3,33.4,29.04,ESE,112,0.0,0.0,89,0.00,CLR,SKC,0.04,WeatherDisplay:10.37,2013-02-10 13:06:00,
2013-02-10 13:11:00,36.3,33.1,29.04,ESE,112,0.0,0.0,88,0.00,CLR,SKC,0.04,WeatherDisplay:10.37,2013-02-10 13:11:00,
2013-02-10 13:16:00,36.3,33.1,29.04,ESE,112,0.0,0.0,88,0.00,CLR,SKC,0.04,WeatherDisplay:10.37,2013-02-10 13:16:00,
2013-02-10 13:21:00,36.5,33.3,29.04,ESE,112,0.0,0.0,88,0.00,CLR,SKC,0.04,WeatherDisplay:10.37,2013-02-10 13:21:00,
2013-02-10 13:26:00,36.7,33.5,29.03,East,90,0.0,0.0,88,0.00,CLR,SKC,0.04,WeatherDisplay:10.37,2013-02-10 13:26:00,
2013-02-10 13:31:00,36.7,33.5,29.03,SE,135,0.0,0.0,88,0.00,CLR,SKC,0.04,WeatherDisplay:10.37,2013-02-10 13:31:00,
2013-02-10 13:36:00,36.7,33.2,29.03,SE,135,0.0,0.0,87,0.00,CLR,SKC,0.04,WeatherDisplay:10.37,2013-02-10 13:36:00,
2013-02-10 13:41:00,36.7,33.2,29.03,SSE,158,0.0,0.0,87,0.00,CLR,SKC,0.04,WeatherDisplay:10.37,2013-02-10 13:41:00,
2013-02-10 13:47:00,36.7,33.2,29.03,ENE,68,0.0,0.0,87,0.00,CLR,SKC,0.04,WeatherDisplay:10.37,2013-02-10 13:47:00,
2013-02-10 13:52:00,36.7,33.2,29.03,SE,135,0.0,0.0,87,0.00,CLR,SKC,0.04,WeatherDisplay:10.37,2013-02-10 13:52:00,
2013-02-10 13:57:00,36.5,33.3,29.03,SE,135,0.0,0.0,88,0.00,CLR,SKC,0.04,WeatherDisplay:10.37,2013-02-10 13:57:00,
2013-02-10 14:02:00,36.7,33.5,29.03,SE,135,0.0,0.0,88,0.00,CLR,SKC,0.04,WeatherDisplay:10.37,2013-02-10 14:02:00,
2013-02-10 14:07:00,36.7,33.5,29.03,East,90,0.0,0.0,88,0.00,CLR,SKC,0.04,WeatherDisplay:10.37,2013-02-10 14:07:00,
2013-02-10 14:12:00,36.7,33.5,29.02,SE,135,0.0,0.0,88,0.02,RA,SKC,0.06,WeatherDisplay:10.37,2013-02-10 14:12:00,
2013-02-10 14:17:00,36.7,33.5,29.02,ESE,112,0.0,0.0,88,0.02,RA,SKC,0.06,WeatherDisplay:10.37,2013-02-10 14:17:00,
2013-02-10 14:22:00,36.7,33.7,29.02,SE,135,0.0,0.0,89,0.02,,SKC,0.06,WeatherDisplay:10.37,2013-02-10 14:22:00,
2013-02-10 14:27:00,37.0,34.1,29.02,SE,135,0.0,0.0,89,0.02,CLR,SKC,0.06,WeatherDisplay:10.37,2013-02-10 14:27:00,
2013-02-10 14:32:00,37.2,34.3,29.02,SE,135,0.0,0.0,89,0.02,CLR,SKC,0.06,WeatherDisplay:10.37,2013-02-10 14:32:00,
2013-02-10 14:37:00,37.2,34.0,29.02,SE,135,0.0,0.0,88,0.02,CLR,SKC,0.06,WeatherDisplay:10.37,2013-02-10 14:37:00,
2013-02-10 14:42:00,37.6,34.3,29.02,SE,135,0.0,0.0,88,0.02,CLR,SKC,0.06,WeatherDisplay:10.37,2013-02-10 14:42:00,
2013-02-10 14:47:00,37.6,34.3,29.02,ESE,112,0.0,0.0,88,0.02,CLR,SKC,0.06,WeatherDisplay:10.37,2013-02-10 14:47:00,
2013-02-10 14:52:00,37.6,34.3,29.01,ESE,112,0.0,0.0,88,0.02,CLR,SKC,0.06,WeatherDisplay:10.37,2013-02-10 14:52:00,
2013-02-10 14:57:00,37.4,34.2,29.01,SE,135,0.0,0.0,88,0.02,CLR,SKC,0.06,WeatherDisplay:10.37,2013-02-10 14:57:00,
2013-02-10 15:02:00,37.4,34.2,29.01,East,90,0.0,0.0,88,0.02,CLR,SKC,0.06,WeatherDisplay:10.37,2013-02-10 15:02:00,
2013-02-10 15:07:00,37.4,34.2,29.00,SE,135,0.0,0.0,88,0.02,CLR,SKC,0.06,WeatherDisplay:10.37,2013-02-10 15:07:00,
2013-02-10 15:12:00,37.2,34.0,29.00,East,90,0.0,0.0,88,0.00,CLR,SKC,0.06,WeatherDisplay:10.37,2013-02-10 15:12:00,
2013-02-10 15:17:00,37.4,34.5,29.00,ESE,112,0.0,0.0,89,0.00,CLR,SKC,0.06,WeatherDisplay:10.37,2013-02-10 15:17:00,
2013-02-10 15:22:00,37.2,34.3,29.00,East,90,0.0,0.0,89,0.00,CLR,SKC,0.06,WeatherDisplay:10.37,2013-02-10 15:22:00,
2013-02-10 15:27:00,37.0,34.1,29.00,ESE,112,0.0,0.0,89,0.00,CLR,SKC,0.06,WeatherDisplay:10.37,2013-02-10 15:27:00,
2013-02-10 15:32:00,37.0,34.1,29.00,ESE,112,0.0,0.0,89,0.00,CLR,SKC,0.06,WeatherDisplay:10.37,2013-02-10 15:32:00,
2013-02-10 15:37:00,37.0,34.4,29.00,East,90,0.0,0.0,90,0.00,CLR,SKC,0.06,WeatherDisplay:10.37,2013-02-10 15:37:00,
2013-02-10 15:42:00,36.7,34.0,29.00,East,90,0.0,0.0,90,0.00,CLR,SKC,0.06,WeatherDisplay:10.37,2013-02-10 15:42:00,
2013-02-10 15:47:00,36.7,34.0,29.00,ESE,112,0.0,0.0,90,0.00,CLR,SKC,0.06,WeatherDisplay:10.37,2013-02-10 15:47:00,
2013-02-10 15:52:00,36.7,34.3,28.99,ESE,112,0.0,0.0,91,0.00,CLR,SKC,0.06,WeatherDisplay:10.37,2013-02-10 15:52:00,
2013-02-10 15:57:00,36.9,34.5,28.99,ESE,112,0.0,0.0,91,0.00,CLR,SKC,0.06,WeatherDisplay:10.37,2013-02-10 15:57:00,
2013-02-10 16:02:00,36.9,34.5,28.99,SE,135,0.0,0.0,91,0.00,CLR,SKC,0.06,WeatherDisplay:10.37,2013-02-10 16:02:00,
2013-02-10 16:07:00,37.2,34.8,28.99,SSE,158,0.0,0.0,91,0.00,CLR,SKC,0.06,WeatherDisplay:10.37,2013-02-10 16:07:00,
2013-02-10 16:12:00,37.2,34.8,28.99,ESE,112,0.0,0.0,91,0.00,CLR,SKC,0.06,WeatherDisplay:10.37,2013-02-10 16:12:00,
2013-02-10 16:17:00,37.2,34.8,28.99,East,90,0.0,0.0,91,0.00,CLR,SKC,0.06,WeatherDisplay:10.37,2013-02-10 16:17:00,
2013-02-10 16:22:00,37.2,34.8,28.99,ESE,112,0.0,0.0,91,0.00,CLR,SKC,0.06,WeatherDisplay:10.37,2013-02-10 16:22:00,
2013-02-10 16:27:00,37.4,35.0,28.98,ESE,112,0.0,0.0,91,0.00,CLR,SKC,0.06,WeatherDisplay:10.37,2013-02-10 16:27:00,
2013-02-10 16:32:00,37.4,35.0,28.98,ENE,68,0.0,0.0,91,0.00,CLR,SKC,0.06,WeatherDisplay:10.37,2013-02-10 16:32:00,
2013-02-10 16:37:00,37.4,35.0,28.98,ESE,112,0.0,0.0,91,0.00,CLR,SKC,0.06,WeatherDisplay:10.37,2013-02-10 16:37:00,
2013-02-10 16:42:00,37.4,35.0,28.98,SE,135,0.0,0.0,91,0.00,CLR,SKC,0.06,WeatherDisplay:10.37,2013-02-10 16:42:00,
2013-02-10 16:48:00,37.4,35.0,28.98,ESE,112,0.0,0.0,91,0.00,CLR,SKC,0.06,WeatherDisplay:10.37,2013-02-10 16:48:00,
2013-02-10 16:53:00,37.6,35.2,28.98,East,90,0.0,0.0,91,0.00,CLR,SKC,0.06,WeatherDisplay:10.37,2013-02-10 16:53:00,
2013-02-10 16:58:00,37.8,35.4,28.98,ESE,112,0.0,0.0,91,0.00,CLR,SKC,0.06,WeatherDisplay:10.37,2013-02-10 16:58:00,
2013-02-10 17:03:00,37.9,35.5,28.98,East,90,0.0,0.0,91,0.00,CLR,SKC,0.06,WeatherDisplay:10.37,2013-02-10 17:03:00,
2013-02-10 17:08:00,37.9,35.3,28.98,East,90,0.0,0.0,90,0.00,CLR,SKC,0.06,WeatherDisplay:10.37,2013-02-10 17:08:00,
2013-02-10 17:13:00,37.9,35.3,28.99,East,90,0.0,0.0,90,0.00,CLR,SKC,0.06,WeatherDisplay:10.37,2013-02-10 17:13:00,
2013-02-10 17:18:00,37.9,35.3,28.98,ESE,112,0.0,0.0,90,0.00,CLR,SKC,0.06,WeatherDisplay:10.37,2013-02-10 17:18:00,
2013-02-10 17:23:00,37.9,35.3,28.98,ESE,112,0.0,0.0,90,0.02,RA,SKC,0.08,WeatherDisplay:10.37,2013-02-10 17:23:00,
2013-02-10 17:28:00,37.9,35.3,28.98,ESE,112,0.0,0.0,90,0.02,RA,SKC,0.08,WeatherDisplay:10.37,2013-02-10 17:28:00,
2013-02-10 17:33:00,37.9,35.3,28.98,SE,135,0.0,0.0,90,0.02,,SKC,0.08,WeatherDisplay:10.37,2013-02-10 17:33:00,
2013-02-10 17:38:00,37.9,35.3,28.98,ESE,112,0.0,0.0,90,0.02,CLR,SKC,0.08,WeatherDisplay:10.37,2013-02-10 17:38:00,
2013-02-10 17:43:00,37.9,35.3,28.98,East,90,0.0,0.0,90,0.02,CLR,SKC,0.08,WeatherDisplay:10.37,2013-02-10 17:43:00,
2013-02-10 17:48:00,37.9,35.3,28.98,ESE,112,0.0,0.0,90,0.02,CLR,SKC,0.08,WeatherDisplay:10.37,2013-02-10 17:48:00,
2013-02-10 17:53:00,37.9,35.3,28.98,East,90,0.0,0.0,90,0.02,CLR,SKC,0.08,WeatherDisplay:10.37,2013-02-10 17:53:00,
2013-02-10 17:58:00,37.9,35.3,28.98,East,90,0.0,0.0,90,0.02,CLR,SKC,0.08,WeatherDisplay:10.37,2013-02-10 17:58:00,
2013-02-10 18:03:00,37.9,35.3,28.98,SE,135,0.0,0.0,90,0.02,CLR,SKC,0.08,WeatherDisplay:10.37,2013-02-10 18:03:00,
2013-02-10 18:08:00,38.1,35.7,28.98,ESE,112,0.0,0.0,91,0.02,CLR,SKC,0.08,WeatherDisplay:10.37,2013-02-10 18:08:00,
2013-02-10 18:13:00,38.1,35.7,28.98,East,90,0.0,0.0,91,0.02,CLR,SKC,0.08,WeatherDisplay:10.37,2013-02-10 18:13:00,
2013-02-10 18:18:00,38.1,35.7,28.98,ESE,112,0.0,0.0,91,0.02,CLR,SKC,0.08,WeatherDisplay:10.37,2013-02-10 18:18:00,
2013-02-10 18:23:00,38.1,35.7,28.98,SE,135,0.0,0.0,91,0.00,CLR,SKC,0.08,WeatherDisplay:10.37,2013-02-10 18:23:00,
2013-02-10 18:28:00,38.1,35.7,28.98,East,90,0.0,0.0,91,0.00,CLR,SKC,0.08,WeatherDisplay:10.37,2013-02-10 18:28:00,
2013-02-10 18:33:00,38.1,35.7,28.98,ESE,112,0.0,0.0,91,0.00,CLR,SKC,0.08,WeatherDisplay:10.37,2013-02-10 18:33:00,
2013-02-10 18:38:00,38.3,35.9,28.98,SE,135,0.0,0.0,91,0.00,CLR,SKC,0.08,WeatherDisplay:10.37,2013-02-10 18:38:00,
2013-02-10 18:43:00,38.3,35.9,28.99,SE,135,0.0,0.0,91,0.00,CLR,SKC,0.08,WeatherDisplay:10.37,2013-02-10 18:43:00,
2013-02-10 18:48:00,38.3,35.9,28.98,SE,135,0.0,0.0,91,0.00,CLR,SKC,0.08,WeatherDisplay:10.37,2013-02-10 18:48:00,
2013-02-10 18:53:00,38.3,35.9,28.99,East,90,0.0,0.0,91,0.00,CLR,SKC,0.08,WeatherDisplay:10.37,2013-02-10 18:53:00,
2013-02-10 18:58:00,38.5,36.1,28.99,East,90,0.0,0.0,91,0.00,CLR,SKC,0.08,WeatherDisplay:10.37,2013-02-10 18:58:00,
2013-02-10 19:03:00,38.5,36.1,28.99,ESE,112,0.0,0.0,91,0.00,CLR,SKC,0.08,WeatherDisplay:10.37,2013-02-10 19:03:00,
2013-02-10 19:08:00,38.5,36.1,28.99,ESE,112,0.0,0.0,91,0.00,CLR,SKC,0.08,WeatherDisplay:10.37,2013-02-10 19:08:00,
2013-02-10 19:13:00,38.5,36.1,28.99,ESE,112,0.0,0.0,91,0.00,CLR,SKC,0.08,WeatherDisplay:10.37,2013-02-10 19:13:00,
2013-02-10 19:18:00,38.7,36.3,28.99,SE,135,0.0,0.0,91,0.00,CLR,SKC,0.08,WeatherDisplay:10.37,2013-02-10 19:18:00,
2013-02-10 19:23:00,38.8,36.4,28.99,East,90,0.0,0.0,91,0.00,CLR,SKC,0.08,WeatherDisplay:10.37,2013-02-10 19:23:00,
2013-02-10 19:28:00,38.8,36.4,28.99,SSE,158,0.0,0.0,91,0.00,CLR,SKC,0.08,WeatherDisplay:10.37,2013-02-10 19:28:00,
2013-02-10 19:33:00,39.0,36.3,28.99,ESE,112,0.0,0.0,90,0.00,CLR,SKC,0.08,WeatherDisplay:10.37,2013-02-10 19:33:00,
2013-02-10 19:38:00,39.0,36.3,29.00,SE,135,0.0,0.0,90,0.00,CLR,SKC,0.08,WeatherDisplay:10.37,2013-02-10 19:38:00,
2013-02-10 19:43:00,39.0,36.3,28.99,SSE,158,0.0,0.0,90,0.00,CLR,SKC,0.08,WeatherDisplay:10.37,2013-02-10 19:43:00,
2013-02-10 19:48:00,39.0,36.3,29.00,SE,135,0.0,0.0,90,0.00,CLR,SKC,0.08,WeatherDisplay:10.37,2013-02-10 19:48:00,
2013-02-10 19:53:00,39.0,36.3,29.00,SE,135,0.0,0.0,90,0.00,CLR,SKC,0.08,WeatherDisplay:10.37,2013-02-10 19:53:00,
2013-02-10 19:58:00,39.0,36.3,29.00,ESE,112,0.0,0.0,90,0.00,CLR,SKC,0.08,WeatherDisplay:10.37,2013-02-10 19:58:00,
2013-02-10 20:03:00,39.0,36.1,29.00,ESE,112,0.0,0.0,89,0.00,CLR,SKC,0.08,WeatherDisplay:10.37,2013-02-10 20:03:00,
2013-02-10 20:08:00,39.0,36.3,29.00,East,90,0.0,0.0,90,0.00,CLR,SKC,0.08,WeatherDisplay:10.37,2013-02-10 20:08:00,
2013-02-10 20:13:00,39.0,36.1,29.00,ESE,112,0.0,0.0,89,0.00,CLR,SKC,0.08,WeatherDisplay:10.37,2013-02-10 20:13:00,
2013-02-10 20:18:00,39.0,36.1,29.00,SE,135,0.0,0.0,89,0.00,CLR,SKC,0.08,WeatherDisplay:10.37,2013-02-10 20:18:00,
2013-02-10 20:23:00,38.8,35.9,29.00,ESE,112,0.0,0.0,89,0.00,CLR,SKC,0.08,WeatherDisplay:10.37,2013-02-10 20:23:00,
2013-02-10 20:28:00,38.8,35.9,29.00,ESE,112,0.0,0.0,89,0.00,CLR,SKC,0.08,WeatherDisplay:10.37,2013-02-10 20:28:00,
2013-02-10 20:33:00,38.8,35.9,29.00,East,90,0.0,0.0,89,0.00,CLR,SKC,0.08,WeatherDisplay:10.37,2013-02-10 20:33:00,
2013-02-10 20:38:00,38.8,35.9,29.00,SE,135,0.0,0.0,89,0.00,CLR,SKC,0.08,WeatherDisplay:10.37,2013-02-10 20:38:00,
2013-02-10 20:43:00,38.8,35.9,29.00,ESE,112,0.0,0.0,89,0.00,CLR,SKC,0.08,WeatherDisplay:10.37,2013-02-10 20:43:00,
2013-02-10 20:48:00,38.8,35.9,29.00,East,90,0.0,0.0,89,0.00,CLR,SKC,0.08,WeatherDisplay:10.37,2013-02-10 20:48:00,
2013-02-10 20:53:00,38.8,35.9,29.00,ESE,112,0.0,0.0,89,0.00,CLR,SKC,0.08,WeatherDisplay:10.37,2013-02-10 20:53:00,
2013-02-10 20:58:00,38.7,35.7,29.00,ESE,112,0.0,0.0,89,0.00,CLR,SKC,0.08,WeatherDisplay:10.37,2013-02-10 20:58:00,
2013-02-10 21:03:00,38.8,35.9,29.00,ESE,112,0.0,0.0,89,0.00,CLR,SKC,0.08,WeatherDisplay:10.37,2013-02-10 21:03:00,
2013-02-10 21:08:00,38.7,36.0,29.00,SE,135,0.0,0.0,90,0.00,CLR,SKC,0.08,WeatherDisplay:10.37,2013-02-10 21:08:00,
2013-02-10 21:13:00,38.5,35.8,29.00,ESE,112,0.0,0.0,90,0.00,CLR,SKC,0.08,WeatherDisplay:10.37,2013-02-10 21:13:00,
2013-02-10 21:18:00,38.5,35.8,29.00,ESE,112,0.0,0.0,90,0.00,CLR,SKC,0.08,WeatherDisplay:10.37,2013-02-10 21:18:00,
2013-02-10 21:23:00,38.3,35.6,29.00,SSE,158,0.0,0.0,90,0.00,CLR,SKC,0.08,WeatherDisplay:10.37,2013-02-10 21:23:00,
2013-02-10 21:28:00,38.5,35.8,29.00,SE,135,0.0,0.0,90,0.00,CLR,SKC,0.08,WeatherDisplay:10.37,2013-02-10 21:28:00,
2013-02-10 21:33:00,38.5,35.8,29.01,ENE,68,0.0,0.0,90,0.00,CLR,SKC,0.08,WeatherDisplay:10.37,2013-02-10 21:33:00,
2013-02-10 21:38:00,38.5,35.8,29.00,SE,135,0.0,0.0,90,0.00,CLR,SKC,0.08,WeatherDisplay:10.37,2013-02-10 21:38:00,
2013-02-10 21:43:00,38.5,35.8,29.01,ESE,112,0.0,0.0,90,0.00,CLR,SKC,0.08,WeatherDisplay:10.37,2013-02-10 21:43:00,
2013-02-10 21:48:00,38.5,35.8,29.01,ESE,112,0.0,0.0,90,0.00,CLR,SKC,0.08,WeatherDisplay:10.37,2013-02-10 21:48:00,
2013-02-10 21:54:00,38.3,35.6,29.01,ESE,112,0.0,0.0,90,0.00,CLR,SKC,0.08,WeatherDisplay:10.37,2013-02-10 21:54:00,
2013-02-10 21:59:00,38.5,35.8,29.02,SE,135,0.0,0.0,90,0.00,CLR,SKC,0.08,WeatherDisplay:10.37,2013-02-10 21:59:00,
2013-02-10 22:04:00,38.5,35.8,29.02,ESE,112,0.0,0.0,90,0.00,CLR,SKC,0.08,WeatherDisplay:10.37,2013-02-10 22:04:00,
2013-02-10 22:09:00,38.5,35.8,29.02,East,90,0.0,0.0,90,0.00,CLR,SKC,0.08,WeatherDisplay:10.37,2013-02-10 22:09:00,
2013-02-10 22:14:00,38.5,35.8,29.02,ESE,112,0.0,0.0,90,0.00,CLR,SKC,0.08,WeatherDisplay:10.37,2013-02-10 22:14:00,
2013-02-10 22:19:00,38.5,35.8,29.02,ESE,112,0.0,0.0,90,0.00,CLR,SKC,0.08,WeatherDisplay:10.37,2013-02-10 22:19:00,
2013-02-10 22:24:00,38.5,35.8,29.02,SSW,202,0.0,0.0,90,0.00,CLR,SKC,0.08,WeatherDisplay:10.37,2013-02-10 22:24:00,
2013-02-10 22:29:00,38.5,35.8,29.02,ESE,112,0.0,0.0,90,0.00,CLR,SKC,0.08,WeatherDisplay:10.37,2013-02-10 22:29:00,
2013-02-10 22:34:00,38.5,35.8,29.03,SSE,158,0.0,0.0,90,0.00,CLR,SKC,0.08,WeatherDisplay:10.37,2013-02-10 22:34:00,
2013-02-10 22:39:00,38.5,35.8,29.03,ESE,112,0.0,0.0,90,0.00,CLR,SKC,0.08,WeatherDisplay:10.37,2013-02-10 22:39:00,
2013-02-10 22:44:00,38.5,35.8,29.03,ESE,112,0.0,0.0,90,0.00,CLR,SKC,0.08,WeatherDisplay:10.37,2013-02-10 22:44:00,
2013-02-10 22:49:00,38.3,35.6,29.03,East,90,0.0,0.0,90,0.00,CLR,SKC,0.08,WeatherDisplay:10.37,2013-02-10 22:49:00,
2013-02-10 22:54:00,38.3,35.6,29.03,East,90,0.0,0.0,90,0.00,CLR,SKC,0.08,WeatherDisplay:10.37,2013-02-10 22:54:00,
2013-02-10 22:59:00,38.3,35.6,29.04,ESE,112,0.0,0.0,90,0.00,CLR,SKC,0.08,WeatherDisplay:10.37,2013-02-10 22:59:00,
2013-02-10 23:04:00,38.3,35.6,29.04,ESE,112,0.0,0.0,90,0.00,CLR,SKC,0.08,WeatherDisplay:10.37,2013-02-10 23:04:00,
2013-02-10 23:09:00,38.3,35.6,29.04,ESE,112,0.0,0.0,90,0.00,CLR,SKC,0.08,WeatherDisplay:10.37,2013-02-10 23:09:00,
2013-02-10 23:14:00,38.3,35.6,29.05,SSE,158,0.0,0.0,90,0.00,CLR,SKC,0.08,WeatherDisplay:10.37,2013-02-10 23:14:00,
2013-02-10 23:19:00,38.3,35.6,29.05,ESE,112,0.0,0.0,90,0.00,CLR,SKC,0.08,WeatherDisplay:10.37,2013-02-10 23:19:00,
2013-02-10 23:24:00,38.3,35.6,29.05,East,90,0.0,0.0,90,0.00,CLR,SKC,0.08,WeatherDisplay:10.37,2013-02-10 23:24:00,
2013-02-10 23:29:00,38.1,35.4,29.05,ESE,112,0.0,0.0,90,0.02,RA,SKC,0.10,WeatherDisplay:10.37,2013-02-10 23:29:00,
2013-02-10 23:34:00,38.1,35.4,29.05,SSE,158,0.0,0.0,90,0.02,RA,SKC,0.10,WeatherDisplay:10.37,2013-02-10 23:34:00,
2013-02-10 23:39:00,37.9,35.3,29.05,East,90,0.0,0.0,90,0.02,,SKC,0.10,WeatherDisplay:10.37,2013-02-10 23:39:00,
2013-02-10 23:44:00,37.9,35.3,29.05,SSE,158,0.0,0.0,90,0.02,CLR,SKC,0.10,WeatherDisplay:10.37,2013-02-10 23:44:00,
2013-02-10 23:49:00,37.9,35.3,29.05,SE,135,0.0,0.0,90,0.02,CLR,SKC,0.10,WeatherDisplay:10.37,2013-02-10 23:49:00,
2013-02-10 23:54:00,37.9,35.5,29.06,ESE,112,0.0,0.0,91,0.02,CLR,SKC,0.10,WeatherDisplay:10.37,2013-02-10 23:54:00,
2013-02-10 23:59:00,37.9,35.5,29.06,ESE,112,0.0,0.0,91,0.02,CLR,SKC,0.10,WeatherDisplay:10.37,2013-02-10 23:59:00,